Location: Eschertshofen
(49.3064°N, 11.5756°E)
Time: 17:17:42
(UTC+00:00)

Cosmos 1125 Rocket - Visible Passes

Search period start: 20 June 2021 00:00
Search period end: 30 June 2021 00:00
Orbit: 758 x 779 km, 74.0° (Epoch: 19 June)

Date Brightness Start Highest point End Pass type
(mag) Time Alt. Az. Time Alt. Az. Time Alt. Az.
20 Jun 4.2 01:06:03 10° NNW 01:11:14 56° ENE 01:16:24 10° SE visible
21 Jun 5.0 00:29:17 10° N 00:34:10 37° ENE 00:39:02 10° SE visible
21 Jun 4.1 02:11:25 10° NW 02:16:16 38° WSW 02:21:06 10° S visible
21 Jun 5.6 23:52:40 10° N 23:57:00 25° NE 00:01:20 10° ESE visible
22 Jun 3.6 01:34:19 10° NNW 01:39:30 61° WSW 01:44:42 10° S visible
22 Jun 6.0 23:16:12 10° N 23:19:45 18° NE 23:23:16 10° E visible
23 Jun 3.6 00:57:21 10° NNW 01:02:39 85° ENE 01:07:56 10° SSE visible
23 Jun 6.2 22:40:05 10° NNE 22:42:22 13° NE 22:44:39 10° ENE visible
24 Jun 4.2 00:20:30 10° NNW 00:25:41 55° ENE 00:30:53 10° SE visible
24 Jun 4.7 02:03:13 10° NW 02:07:24 24° W 02:11:36 10° SSW visible
24 Jun 4.9 23:43:46 10° N 23:48:38 36° ENE 23:53:30 10° ESE visible
25 Jun 4.1 01:25:53 10° NW 01:30:44 39° WSW 01:35:02 13° SSW visible
25 Jun 5.5 23:07:08 10° N 23:11:28 25° NE 23:15:48 10° ESE visible
26 Jun 3.6 00:48:46 10° NNW 00:53:59 62° WSW 00:58:05 16° S visible
26 Jun 5.9 22:30:41 10° N 22:34:11 18° NE 22:37:43 10° E visible
27 Jun 3.5 00:11:49 10° NNW 00:17:07 84° ENE 00:21:13 17° SSE visible
27 Jun 5.3 01:55:27 10° WNW 01:58:28 16° W 02:01:27 10° SW visible
27 Jun 6.1 21:54:33 10° NNE 21:56:49 13° NE 21:59:04 10° ENE visible
27 Jun 4.1 23:34:58 10° NNW 23:40:09 54° ENE 23:44:26 15° SE visible
28 Jun 4.7 01:17:39 10° NW 01:21:54 25° W 01:24:40 16° SW visible
28 Jun 4.8 22:58:14 10° N 23:03:06 36° ENE 23:07:43 11° ESE visible
29 Jun 4.1 00:40:20 10° NW 00:45:13 39° WSW 00:47:57 23° SSW visible
29 Jun 5.3 22:21:37 10° N 22:25:56 25° NE 22:30:15 10° ESE visible
